FALCON 9 DEB, 48607

Orbit data source: Space-Track

FALCON 9 DEB, 48607 is space debris in LEO originally from a launch on Sat, 15 May 2021 UTC launched from the Air Force Eastern Test Range (AFETR). Debris objects in space refer to the collection of defunct objects orbiting the Earth. Examples of debris include non-operational satellites, rocket bodies, and fragments generated from explosions, collisions, or faulty payload assembly.

Loading next visibility...
Identifier
48607, 2021-041BG
Orbit
LEO
Country
Flag of USUS
Related business
Manufacturer
SpaceX/Seattle
Mission
Spacecraft
Bus & Motor
Unknown
Mass
~100 kg wet, ~100 kg dry
Launch date (UTC)
2021-05-15 (5 years ago)
Launch vehicle
Unknown
Launch site
Air Force Eastern Test Range (AFETR)
Object type
Payload
Rocket body
Debris
Shape & HBR
Cyl, 3.5 m
Radar Cross Section
0.110 m², Medium (>0.1 m² and < 1m²)

Expand to show TLE details & history
Last TLE update: 3 days ago

TLE from 3 days ago
0 FALCON 9 DEB
1 48607U 21041BG  26170.52765556  .00000693  00000-0  66104-4 0  9999
2 48607  53.0352 103.6842 0013171 110.0841 250.1567 15.06096884279503
Epoch: 2026-06-19T12:39Z
TLE epoch observation values (Epoch: 2026-06-19T12:39:49.440Z)
Latitude
0.00004°
Longitude
5.97288°
Altitude
552.125 km
Speed
7.585 km/s
True Right ascension
06h 54m 44s
True Declination
0° 00' 00"
Sunlit
Object was in daylight at epoch
Visualization orbit readout
Latitude
Unknown
Longitude
Unknown
Altitude
Unknown
Speed
Unknown
Apparent Right ascension
Unknown
Apparent Declination
Unknown
Sunlit
N/A
Visualization observer readout
Local Sidereal Time
23:20:07
Azimuth
Unknown
Elevation
Unknown
Doppler factor
Unknown
Orbital elements
Apogee altitude
557.537 km
Perigee altitude
539.292 km
Semi-major axis
6,926.551 km
Eccentricity
0.00132
Inclination
53.0352°
RAAN
103.6842°
Arg. of periapsis
110.0841°
True anomaly
250.01481°
Mean anomaly
250.1567°
Eccentric anomaly
250.08575°
Mean motion
3.76502 °/min
Orbital period
95.62 mins
BSTAR
0.000066104
Loading maneuver chart data...
Computing Atmospheric mass density...
Loading historical data...
Loading historical data...
Loading historical data...
Loading historical data...
Loading historical data...
Loading historical data...
Loading historical data...

Documentation

Showing up to 5 results
|